Погода в Эн-Наджафе

Ирак     32°01′18″N   44°20′05″E
темп.,
°C
ветер,
м/с
пор.,
м/с
влажн.,
%
обл.,
%
осадки,
мм/ч
давл.,
гПа
погр.,
м
17 апреля, сб
сб1700:00+25с4521100 0.0 1014107
03:00+24ссз3522100 0.0 101480
06:00+23сз452359 0.0 101594
09:00+28сз681814 0.0 1016672
12:00+32сз810130 0.0 10151577
15:00+34ссз910110 0.0 10131871
18:00+33ссз69110 0.0 1013711
21:00+29ссз57140 0.0 1014136
18 апреля, вс
вс1800:00+27с34160 0.0 101347
03:00+26сз34170 0.0 101346
06:00+25сз45190 0.0 101560
09:00+30сз671323 0.0 1016554
12:00+35зсз47100 0.0 10151780
15:00+37ссз58952 0.0 10123033
18:00+35с561099 0.0 1012394
21:00+32с58145 0.0 1013171
19 апреля, пн
пн1900:00+29сз34165 0.0 101251
03:00+27ссз452048 0.0 101290
06:00+26сз572285 0.0 1013125
09:00+32ссз6718100 0.0 1014533
12:00+35ссз8101599 0.0 10131677
15:00+37сз91013100 0.0 10102364
18:00+36ссз71013100 0.0 1010871
21:00+32зсз61017100 0.0 1010270
20 апреля, вт
вт2000:00+30сз5918100 0.0 1010179
03:00+28сз61122100 0.0 1009179
06:00+27сз5925100 0.0 1010157
09:00+33сз6718100 0.0 1011436
12:00+39ссз671184 0.0 10091181
15:00+40ссз6685 0.0 10071752
18:00+38ссз349100 0.0 1006127
21:00+34ссв1111100 0.0 100711
21 апреля, ср
ср2100:00+33ююз3310100 0.0 100619
03:00+31юз3312100 0.0 100630
06:00+29зсз111479 0.0 100811
09:00+35з55984 0.0 1010515
12:00+37сз661398 0.0 1009851
15:00+39зсз651073 0.0 10081271
18:00+37сз91011100 0.0 1008639
21:00+33ссз813145 0.0 1010367